When you browse on this site, cookies collect data to enhance your experience and personalize the content and advertising you see.
Visit our Privacy Policy to learn more. By continuing to use the site, you agree to this use of cookies and data.
  • en France
  • Liste des pays
  • À 7 jours
  • Température de l'eau
  • Carte satellitaire
  • Carte météo
  • Widgets météo
  • user-avatar
    Se connecter

    Météo par heure à Agafonovo

    Ce jour, 19 Novembre, Lundi

    Heure Température Précipitation Vent Pression Humidité
    00:00 0°C° 0 mm 4 m/s 768 mmHg 82%
    01:00 +1°C° 0 mm 3 m/s 769 mmHg 83%
    02:00 +1°C° 0 mm 3 m/s 769 mmHg 85%
    03:00 0°C° 0 mm 3 m/s 769 mmHg 86%
    04:00 0°C° 0 mm 3 m/s 770 mmHg 87%
    05:00 0°C° 0 mm 3 m/s 770 mmHg 88%
    06:00 0°C° 0 mm 3 m/s 770 mmHg 88%
    07:00 0°C° 0 mm 3 m/s 770 mmHg 88%
    08:00 -1°C° 0 mm 3 m/s 771 mmHg 86%
    09:00 -1°C° 0 mm 3 m/s 771 mmHg 84%
    10:00 -1°C° 0 mm 3 m/s 771 mmHg 83%
    11:00 0°C° 0 mm 3 m/s 772 mmHg 81%
    12:00 0°C° 0 mm 3 m/s 772 mmHg 80%
    13:00 0°C° 0 mm 3 m/s 772 mmHg 80%
    14:00 +1°C° 0 mm 2 m/s 772 mmHg 79%
    15:00 -1°C° 0 mm 2 m/s 772 mmHg 81%
    16:00 -1°C° 0 mm 2 m/s 772 mmHg 83%
    17:00 -2°C° 0 mm 2 m/s 772 mmHg 85%
    18:00 -2°C° 0 mm 2 m/s 772 mmHg 84%
    19:00 -2°C° 0 mm 2 m/s 772 mmHg 84%
    20:00 -3°C° 0 mm 2 m/s 772 mmHg 84%
    21:00 -1°C° 0 mm 1 m/s 772 mmHg 84%
    22:00 -1°C° 0 mm 1 m/s 772 mmHg 85%
    23:00 -2°C° 0 mm 1 m/s 772 mmHg 85%

    Demain, 20 Novembre, Mardi

    Heure Température Précipitation Vent Pression Humidité
    00:00 -2°C° 0 mm 1 m/s 772 mmHg 85%
    01:00 -2°C° 0 mm 1 m/s 772 mmHg 85%
    02:00 -2°C° 0 mm 1 m/s 771 mmHg 84%
    03:00 -2°C° 0 mm 1 m/s 771 mmHg 83%
    04:00 -2°C° 0 mm 1 m/s 771 mmHg 82%
    05:00 -2°C° 0 mm 1 m/s 770 mmHg 81%
    06:00 -3°C° 0 mm 0 m/s 770 mmHg 80%
    07:00 -3°C° 0 mm 0 m/s 770 mmHg 79%
    08:00 -3°C° 0 mm 0 m/s 769 mmHg 78%
    09:00 -2°C° 0 mm 0 m/s 769 mmHg 73%
    10:00 0°C° 0 mm 1 m/s 769 mmHg 69%
    11:00 +1°C° 0 mm 1 m/s 769 mmHg 64%
    12:00 +1°C° 0 mm 1 m/s 769 mmHg 64%
    13:00 +1°C° 0 mm 1 m/s 768 mmHg 64%
    14:00 +1°C° 0 mm 1 m/s 768 mmHg 64%
    15:00 +1°C° 0 mm 1 m/s 768 mmHg 69%
    16:00 -2°C° 0 mm 2 m/s 767 mmHg 74%
    17:00 -2°C° 0 mm 2 m/s 767 mmHg 79%
    18:00 -2°C° 0 mm 2 m/s 767 mmHg 81%
    19:00 -2°C° 0 mm 2 m/s 767 mmHg 83%
    20:00 -2°C° 0 mm 2 m/s 767 mmHg 86%
    21:00 -2°C° 0 mm 2 m/s 767 mmHg 87%
    22:00 -2°C° 0 mm 2 m/s 767 mmHg 89%
    23:00 -2°C° 0 mm 2 m/s 767 mmHg 91%

    Après-demain, 21 Novembre, Mercredi

    Heure Température Précipitation Vent Pression Humidité
    00:00 -1°C° 0 mm 2 m/s 767 mmHg 91%
    01:00 -1°C° 0 mm 2 m/s 767 mmHg 90%
    02:00 -1°C° 0 mm 2 m/s 767 mmHg 90%
    03:00 -1°C° 0 mm 2 m/s 767 mmHg 91%
    04:00 -1°C° 0 mm 2 m/s 767 mmHg 91%
    05:00 -1°C° 0 mm 2 m/s 768 mmHg 91%
    06:00 -1°C° 0 mm 2 m/s 768 mmHg 92%
    07:00 -1°C° 0 mm 2 m/s 768 mmHg 92%
    08:00 -1°C° 0 mm 2 m/s 768 mmHg 93%
    09:00 -1°C° 0 mm 2 m/s 768 mmHg 90%
    10:00 -1°C° 0 mm 2 m/s 768 mmHg 88%
    11:00 +1°C° 0 mm 2 m/s 769 mmHg 85%
    12:00 +1°C° 0 mm 2 m/s 769 mmHg 85%
    13:00 +2°C° 0 mm 1 m/s 769 mmHg 84%
    14:00 +2°C° 0 mm 1 m/s 769 mmHg 84%
    15:00 +1°C° 0 mm 1 m/s 768 mmHg 87%
    16:00 -2°C° 0 mm 2 m/s 768 mmHg 89%
    17:00 -3°C° 0 mm 2 m/s 768 mmHg 92%
    18:00 -3°C° 0 mm 2 m/s 768 mmHg 92%
    19:00 -3°C° 0 mm 2 m/s 768 mmHg 91%
    20:00 -3°C° 0 mm 2 m/s 768 mmHg 91%
    21:00 -3°C° 0 mm 2 m/s 768 mmHg 91%
    22:00 -3°C° 0 mm 2 m/s 768 mmHg 90%
    23:00 -3°C° 0 mm 2 m/s 768 mmHg 90%

    22 Novembre, Jeudi

    Heure Température Précipitation Vent Pression Humidité
    00:00 -3°C° 0 mm 2 m/s 767 mmHg 90%
    01:00 -3°C° 0 mm 2 m/s 767 mmHg 90%
    02:00 -2°C° 0 mm 3 m/s 767 mmHg 89%
    03:00 -2°C° 0 mm 3 m/s 766 mmHg 88%
    04:00 -2°C° 0 mm 3 m/s 766 mmHg 87%
    05:00 -2°C° 0 mm 3 m/s 766 mmHg 86%
    06:00 -2°C° 0 mm 3 m/s 765 mmHg 85%
    07:00 -3°C° 0 mm 4 m/s 765 mmHg 83%
    08:00 -3°C° 0 mm 4 m/s 765 mmHg 82%
    09:00 -3°C° 0 mm 4 m/s 764 mmHg 79%
    10:00 -2°C° 0 mm 4 m/s 764 mmHg 77%
    11:00 -1°C° 0 mm 4 m/s 764 mmHg 74%
    12:00 -1°C° 0 mm 4 m/s 764 mmHg 76%
    13:00 -1°C° 0 mm 4 m/s 764 mmHg 78%
    14:00 -1°C° 0 mm 4 m/s 763 mmHg 79%
    15:00 -1°C° 0 mm 4 m/s 764 mmHg 82%
    16:00 -1°C° 0 mm 4 m/s 764 mmHg 84%
    17:00 -1°C° 0 mm 4 m/s 764 mmHg 87%
    18:00 -1°C° 0 mm 3 m/s 764 mmHg 89%
    19:00 -1°C° 0 mm 3 m/s 764 mmHg 91%
    20:00 -1°C° 0 mm 2 m/s 764 mmHg 93%
    21:00 -1°C° 0 mm 2 m/s 765 mmHg 94%
    22:00 -2°C° 0 mm 2 m/s 765 mmHg 95%
    23:00 -2°C° 0 mm 2 m/s 765 mmHg 95%

    23 Novembre, Vendredi

    Heure Température Précipitation Vent Pression Humidité
    00:00 0°C° 0 mm 1 m/s 765 mmHg 96%
    01:00 0°C° 0 mm 1 m/s 766 mmHg 96%
    02:00 0°C° 0 mm 1 m/s 766 mmHg 96%
    03:00 0°C° 0 mm 1 m/s 766 mmHg 96%
    04:00 0°C° 0 mm 1 m/s 766 mmHg 96%
    05:00 0°C° 0 mm 1 m/s 766 mmHg 96%
    06:00 0°C° 0 mm 1 m/s 766 mmHg 96%
    07:00 -2°C° 0 mm 2 m/s 766 mmHg 95%
    08:00 -1°C° 0 mm 2 m/s 766 mmHg 95%
    09:00 -1°C° 0 mm 2 m/s 766 mmHg 93%
    10:00 -1°C° 0 mm 2 m/s 766 mmHg 91%
    11:00 -1°C° 0 mm 3 m/s 766 mmHg 89%
    12:00 0°C° 0 mm 3 m/s 766 mmHg 88%
    13:00 0°C° 0 mm 3 m/s 765 mmHg 88%
    14:00 -1°C° 0 mm 4 m/s 765 mmHg 87%
    15:00 -1°C° 0 mm 4 m/s 765 mmHg 87%
    16:00 -1°C° 0 mm 4 m/s 764 mmHg 86%
    17:00 -1°C° 0 mm 4 m/s 764 mmHg 85%
    18:00 -1°C° 0 mm 4 m/s 764 mmHg 85%
    19:00 -1°C° 0 mm 4 m/s 763 mmHg 85%
    20:00 -1°C° 0 mm 4 m/s 763 mmHg 84%
    21:00 -1°C° 0 mm 4 m/s 763 mmHg 85%
    22:00 -1°C° 0 mm 4 m/s 762 mmHg 85%
    23:00 -1°C° 0 mm 4 m/s 762 mmHg 85%

    24 Novembre, Samedi

    Heure Température Précipitation Vent Pression Humidité
    00:00 -2°C° 0 mm 4 m/s 762 mmHg 85%
    01:00 -2°C° 0 mm 4 m/s 761 mmHg 85%
    02:00 -2°C° 0 mm 4 m/s 761 mmHg 85%
    03:00 -2°C° 0 mm 4 m/s 761 mmHg 85%
    04:00 -2°C° 0 mm 4 m/s 760 mmHg 85%
    05:00 -2°C° 0 mm 4 m/s 760 mmHg 85%
    06:00 -2°C° 0 mm 4 m/s 760 mmHg 86%
    07:00 -1°C° 0 mm 3 m/s 760 mmHg 86%
    08:00 -1°C° 0 mm 3 m/s 759 mmHg 86%
    09:00 -1°C° 0 mm 3 m/s 759 mmHg 86%
    10:00 -1°C° 0 mm 3 m/s 759 mmHg 85%
    11:00 0°C° 0 mm 3 m/s 759 mmHg 85%
    12:00 0°C° 0 mm 3 m/s 759 mmHg 85%
    13:00 0°C° 0 mm 3 m/s 759 mmHg 85%
    14:00 0°C° 0 mm 3 m/s 758 mmHg 85%
    15:00 0°C° 0 mm 3 m/s 758 mmHg 86%
    16:00 -1°C° 0 mm 3 m/s 758 mmHg 87%
    17:00 -1°C° 0 mm 3 m/s 758 mmHg 88%
    18:00 -1°C° 0 mm 2 m/s 758 mmHg 89%
    19:00 -1°C° 0 mm 2 m/s 758 mmHg 89%
    20:00 -1°C° 0 mm 2 m/s 758 mmHg 90%
    21:00 -1°C° 0 mm 2 m/s 758 mmHg 90%
    22:00 -1°C° 0 mm 2 m/s 758 mmHg 91%
    23:00 -1°C° 0 mm 2 m/s 758 mmHg 91%
    Voir plus